| time (UTC) | temp F | wind direction | speed MPH | gust MPH | rain 1hr in | rain 24hr in | rain mn in | humidity % | barometer mb |
| 20260506062036 | 52 | 6 | 4.0 | 11.0 | 0.00 | 0.00 | 0.00 | 81 | 1009.1 |
| 20260506061552 | 52 | 24 | 1.0 | 14.0 | 0.00 | 0.00 | 0.00 | 81 | 1009.0 |
| 20260506061016 | 52 | 19 | 5.0 | 14.0 | 0.00 | 0.00 | 0.00 | 81 | 1009.0 |
| 20260506051036 | 51 | 16 | 4.0 | 11.0 | 0.00 | 0.00 | 0.00 | 82 | 1008.9 |
| 20260506050114 | 50 | 5 | 4.0 | 9.0 | 0.00 | 0.00 | 0.00 | 81 | 1009.0 |
| 20260506045036 | 51 | 1 | 3.0 | 9.0 | 0.00 | 0.00 | 0.00 | 81 | 1009.1 |
| 20260506044552 | 50 | 5 | 2.0 | 9.0 | 0.00 | 0.00 | 0.00 | 81 | 1009.0 |
| 20260506044016 | 51 | 356 | 3.0 | 7.0 | 0.00 | 0.00 | 0.00 | 81 | 1009.0 |
| 20260506043054 | 50 | 344 | 2.0 | 6.0 | 0.00 | 0.00 | 0.00 | 81 | 1009.1 |
| 20260506043016 | 50 | 18 | 3.0 | 6.0 | 0.00 | 0.00 | 0.00 | 81 | 1009.1 |
| 20260506042016 | 50 | 360 | 2.0 | 5.0 | 0.00 | 0.00 | 0.00 | 82 | 1009.0 |
| 20260506041604 | 50 | 355 | 2.0 | 9.0 | 0.00 | 0.00 | 0.00 | 81 | 1009.0 |
| 20260506041016 | 50 | 19 | 2.0 | 9.0 | 0.00 | 0.00 | 0.00 | 82 | 1009.1 |
| 20260506040052 | 50 | 5 | 2.0 | 8.0 | 0.00 | 0.00 | 0.00 | 82 | 1009.1 |
| 20260506040016 | 50 | 11 | 2.0 | 8.0 | 0.00 | 0.00 | 0.00 | 82 | 1009.1 |
| 20260506035016 | 50 | 8 | 4.0 | 9.0 | 0.00 | 0.00 | 0.00 | 83 | 1009.1 |
| 20260506034554 | 50 | 17 | 3.0 | 8.0 | 0.00 | 0.00 | 0.00 | 82 | 1009.1 |
| 20260506034016 | 50 | 357 | 4.0 | 8.0 | 0.00 | 0.00 | 0.00 | 82 | 1009.1 |
| 20260506033047 | 50 | 29 | 3.0 | 10.0 | 0.00 | 0.00 | 0.00 | 82 | 1009.1 |
| 20260506033016 | 50 | 4 | 3.0 | 9.0 | 0.00 | 0.00 | 0.00 | 82 | 1009.2 |
| 20260506032015 | 50 | 4 | 4.0 | 10.0 | 0.00 | 0.00 | 0.00 | 82 | 1009.2 |
| 20260506031548 | 50 | 13 | 2.0 | 8.0 | 0.00 | 0.00 | 0.00 | 82 | 1009.2 |
| 20260506031016 | 50 | 19 | 4.0 | 10.0 | 0.00 | 0.00 | 0.00 | 82 | 1009.3 |
| 20260506030057 | 50 | 17 | 2.0 | 8.0 | 0.00 | 0.00 | 0.00 | 82 | 1009.4 |
| 20260506030016 | 50 | 12 | 2.0 | 8.0 | 0.00 | 0.00 | 0.00 | 82 | 1009.4 |
| 20260506025035 | 50 | 3 | 2.0 | 8.0 | 0.00 | 0.00 | 0.00 | 82 | 1009.4 |
| 20260506024603 | 50 | 342 | 3.0 | 9.0 | 0.00 | 0.00 | 0.00 | 81 | 1009.4 |
| 20260506024016 | 50 | 7 | 4.0 | 9.0 | 0.00 | 0.00 | 0.00 | 82 | 1009.4 |
| 20260506023108 | 50 | 26 | 3.0 | 11.0 | 0.00 | 0.00 | 0.00 | 82 | 1009.4 |
| 20260506023016 | 50 | 4 | 3.0 | 11.0 | 0.00 | 0.00 | 0.00 | 82 | 1009.5 |
| 20260506022016 | 50 | 17 | 4.0 | 8.0 | 0.00 | 0.00 | 0.00 | 82 | 1009.5 |
| 20260506021548 | 50 | 23 | 3.0 | 7.0 | 0.00 | 0.00 | 0.00 | 82 | 1009.5 |
| 20260506021016 | 50 | 15 | 3.0 | 7.0 | 0.00 | 0.00 | 0.00 | 83 | 1009.6 |
| 20260506020055 | 49 | 15 | 2.0 | 9.0 | 0.00 | 0.00 | 0.00 | 82 | 1009.6 |
| 20260506020016 | 50 | 19 | 2.0 | 9.0 | 0.00 | 0.00 | 0.00 | 83 | 1009.6 |
| 20260506015016 | 50 | 19 | 1.0 | 5.0 | 0.00 | 0.00 | 0.00 | 82 | 1009.7 |
| 20260506014553 | 49 | 18 | 0.0 | 4.0 | 0.00 | 0.00 | 0.00 | 82 | 1009.7 |
| 20260506014016 | 49 | 19 | 1.0 | 7.0 | 0.00 | 0.00 | 0.00 | 83 | 1009.7 |
| 20260506013056 | 49 | 0 | 1.0 | 4.0 | 0.00 | 0.00 | 0.00 | 82 | 1009.7 |
| 20260506013015 | 49 | 22 | 1.0 | 3.0 | 0.00 | 0.00 | 0.00 | 83 | 1009.8 |
| 20260506012016 | 49 | 22 | 1.0 | 4.0 | 0.00 | 0.00 | 0.00 | 83 | 1009.8 |
| 20260506011550 | 48 | 0 | 0.0 | 5.0 | 0.00 | 0.00 | 0.00 | 82 | 1009.7 |
| 20260506011016 | 49 | 24 | 1.0 | 5.0 | 0.00 | 0.00 | 0.00 | 83 | 1009.8 |
| 20260506010050 | 48 | 24 | 1.0 | 4.0 | 0.00 | 0.00 | 0.00 | 82 | 1009.7 |
| 20260506010016 | 48 | 25 | 2.0 | 4.0 | 0.00 | 0.00 | 0.00 | 83 | 1009.8 |
| 20260506005016 | 48 | 25 | 1.0 | 3.0 | 0.00 | 0.00 | 0.00 | 82 | 1009.9 |
| 20260506004546 | 48 | 0 | 0.0 | 3.0 | 0.00 | 0.00 | 0.00 | 81 | 1009.9 |
| 20260506004016 | 48 | 25 | 0.0 | 3.0 | 0.00 | 0.00 | 0.00 | 82 | 1010.1 |
| 20260506003054 | 48 | 0 | 0.0 | 3.0 | 0.00 | 0.00 | 0.00 | 81 | 1010.1 |
| 20260506003016 | 48 | 25 | 0.0 | 3.0 | 0.00 | 0.00 | 0.00 | 82 | 1010.2 |
| 20260506002016 | 48 | 25 | 0.0 | 3.0 | 0.00 | 0.00 | 0.00 | 82 | 1010.2 |
| 20260506001557 | 48 | 0 | 0.0 | 5.0 | 0.00 | 0.00 | 0.00 | 81 | 1010.1 |
| 20260506001016 | 48 | 25 | 1.0 | 5.0 | 0.00 | 0.00 | 0.00 | 82 | 1010.3 |
| 20260506000100 | 48 | 25 | 0.0 | 4.0 | 0.00 | 0.00 | 0.00 | 81 | 1010.3 |
| 20260506000016 | 48 | 25 | 1.0 | 4.0 | 0.00 | 0.00 | 0.00 | 82 | 1010.4 |
| 20260505235016 | 48 | 24 | 1.0 | 5.0 | 0.00 | 0.00 | 0.00 | 82 | 1010.5 |
| 20260505234552 | 48 | 24 | 1.0 | 5.0 | 0.00 | 0.00 | 0.00 | 82 | 1010.3 |
| 20260505234036 | 48 | 27 | 1.0 | 3.0 | 0.00 | 0.00 | 0.00 | 82 | 1010.6 |
| 20260505233054 | 48 | 0 | 0.0 | 5.0 | 0.00 | 0.00 | 0.00 | 82 | 1010.6 |
| 20260505233016 | 48 | 27 | 1.0 | 4.0 | 0.00 | 0.00 | 0.00 | 82 | 1010.6 |
| 20260505232016 | 48 | 27 | 1.0 | 5.0 | 0.00 | 0.00 | 0.00 | 82 | 1010.7 |
| 20260505231549 | 48 | 27 | 0.0 | 4.0 | 0.00 | 0.00 | 0.00 | 82 | 1010.6 |
| 20260505231016 | 48 | 27 | 1.0 | 5.0 | 0.00 | 0.00 | 0.00 | 82 | 1010.6 |
| 20260505230120 | 48 | 0 | 0.0 | 4.0 | 0.00 | 0.00 | 0.00 | 81 | 1010.6 |
| 20260505230016 | 49 | 28 | 1.0 | 4.0 | 0.00 | 0.00 | 0.00 | 81 | 1010.6 |
| 20260505225036 | 49 | 35 | 2.0 | 9.0 | 0.00 | 0.00 | 0.00 | 80 | 1010.7 |
| 20260505224552 | 48 | 45 | 3.0 | 9.0 | 0.00 | 0.00 | 0.00 | 80 | 1010.6 |
| 20260505224015 | 49 | 25 | 3.0 | 5.0 | 0.00 | 0.00 | 0.00 | 79 | 1010.7 |
| 20260505223053 | 49 | 23 | 2.0 | 8.0 | 0.00 | 0.00 | 0.00 | 78 | 1010.7 |
| 20260505223016 | 50 | 22 | 3.0 | 8.0 | 0.00 | 0.00 | 0.00 | 78 | 1010.8 |
| 20260505222016 | 50 | 12 | 3.0 | 8.0 | 0.00 | 0.00 | 0.00 | 78 | 1010.8 |
| 20260505221557 | 49 | 355 | 1.0 | 6.0 | 0.00 | 0.00 | 0.00 | 77 | 1010.8 |
| 20260505221016 | 50 | 27 | 2.0 | 6.0 | 0.00 | 0.00 | 0.00 | 78 | 1011.0 |
| 20260505220104 | 49 | 32 | 2.0 | 6.0 | 0.00 | 0.00 | 0.00 | 77 | 1011.0 |
| 20260505220016 | 49 | 38 | 2.0 | 6.0 | 0.00 | 0.00 | 0.00 | 78 | 1011.1 |
| 20260505215035 | 49 | 21 | 1.0 | 4.0 | 0.00 | 0.00 | 0.00 | 79 | 1011.1 |
| 20260505214551 | 48 | 21 | 1.0 | 5.0 | 0.00 | 0.00 | 0.00 | 78 | 1011.1 |
| 20260505214016 | 49 | 20 | 2.0 | 4.0 | 0.00 | 0.00 | 0.00 | 78 | 1011.2 |
| 20260505213052 | 48 | 0 | 1.0 | 4.0 | 0.00 | 0.00 | 0.00 | 78 | 1011.2 |
| 20260505213015 | 49 | 18 | 2.0 | 4.0 | 0.00 | 0.00 | 0.00 | 78 | 1011.3 |
| 20260505212015 | 49 | 17 | 1.0 | 5.0 | 0.00 | 0.00 | 0.00 | 78 | 1011.3 |
| 20260505211602 | 48 | 17 | 1.0 | 7.0 | 0.00 | 0.00 | 0.00 | 78 | 1011.3 |
| 20260505211016 | 49 | 17 | 2.0 | 7.0 | 0.00 | 0.00 | 0.00 | 78 | 1011.3 |
| 20260505210056 | 49 | 15 | 1.0 | 8.0 | 0.00 | 0.00 | 0.00 | 77 | 1011.2 |
| 20260505210015 | 49 | 23 | 2.0 | 7.0 | 0.00 | 0.00 | 0.00 | 77 | 1011.3 |
| 20260505205015 | 49 | 21 | 4.0 | 8.0 | 0.00 | 0.00 | 0.00 | 77 | 1011.3 |
| 20260505204555 | 49 | 26 | 2.0 | 8.0 | 0.00 | 0.00 | 0.00 | 76 | 1011.3 |
| 20260505204015 | 50 | 29 | 3.0 | 7.0 | 0.00 | 0.00 | 0.00 | 76 | 1011.3 |
| 20260505203051 | 49 | 0 | 2.0 | 9.0 | 0.00 | 0.00 | 0.00 | 75 | 1011.2 |
| 20260505203016 | 50 | 6 | 3.0 | 9.0 | 0.00 | 0.00 | 0.00 | 76 | 1011.2 |
| 20260505202015 | 50 | 17 | 3.0 | 8.0 | 0.00 | 0.00 | 0.00 | 76 | 1011.2 |
| 20260505201551 | 49 | 5 | 2.0 | 8.0 | 0.00 | 0.00 | 0.00 | 75 | 1011.2 |
| 20260505201035 | 50 | 7 | 3.0 | 8.0 | 0.00 | 0.00 | 0.00 | 75 | 1011.1 |
| 20260505200109 | 50 | 5 | 2.0 | 7.0 | 0.00 | 0.00 | 0.00 | 75 | 1011.1 |
| 20260505200016 | 50 | 5 | 3.0 | 7.0 | 0.00 | 0.00 | 0.00 | 75 | 1011.1 |
| 20260505195018 | 50 | 20 | 3.0 | 8.0 | 0.00 | 0.00 | 0.00 | 74 | 1011.0 |
| 20260505194556 | 50 | 19 | 2.0 | 8.0 | 0.00 | 0.00 | 0.00 | 73 | 1011.0 |
| 20260505194018 | 50 | 13 | 3.0 | 7.0 | 0.00 | 0.00 | 0.00 | 73 | 1011.0 |
| 20260505193104 | 50 | 30 | 3.0 | 9.0 | 0.00 | 0.00 | 0.00 | 72 | 1011.0 |
| 20260505193018 | 50 | 27 | 3.0 | 9.0 | 0.00 | 0.00 | 0.00 | 72 | 1011.0 |
| 20260505192018 | 51 | 21 | 4.0 | 10.0 | 0.00 | 0.00 | 0.00 | 72 | 1011.0 |
| 20260505191602 | 50 | 20 | 3.0 | 10.0 | 0.00 | 0.00 | 0.00 | 71 | 1011.0 |
| 20260505191018 | 51 | 28 | 3.0 | 13.0 | 0.00 | 0.00 | 0.00 | 72 | 1011.0 |
| 20260505190056 | 51 | 5 | 5.0 | 12.0 | 0.00 | 0.00 | 0.00 | 71 | 1011.0 |
| 20260505190016 | 51 | 14 | 6.0 | 12.0 | 0.00 | 0.00 | 0.00 | 72 | 1011.0 |
| 20260505185038 | 52 | 19 | 4.0 | 10.0 | 0.00 | 0.00 | 0.00 | 72 | 1010.9 |
| 20260505184557 | 51 | 16 | 4.0 | 13.0 | 0.00 | 0.00 | 0.00 | 72 | 1010.8 |
| 20260505184018 | 52 | 9 | 5.0 | 13.0 | 0.00 | 0.00 | 0.00 | 71 | 1010.8 |
| 20260505183056 | 52 | 14 | 6.0 | 12.0 | 0.00 | 0.00 | 0.00 | 70 | 1010.7 |
| 20260505183018 | 52 | 17 | 5.0 | 12.0 | 0.00 | 0.00 | 0.00 | 72 | 1010.8 |
| 20260505182018 | 52 | 15 | 6.0 | 12.0 | 0.00 | 0.00 | 0.00 | 72 | 1010.7 |
| 20260505181558 | 52 | 328 | 5.0 | 12.0 | 0.00 | 0.00 | 0.00 | 72 | 1010.7 |
| 20260505181018 | 52 | 5 | 4.0 | 10.0 | 0.00 | 0.00 | 0.00 | 71 | 1010.8 |
| 20260505180054 | 52 | 12 | 5.0 | 11.0 | 0.00 | 0.00 | 0.00 | 70 | 1010.8 |
| 20260505180018 | 53 | 8 | 5.0 | 11.0 | 0.00 | 0.00 | 0.00 | 70 | 1010.8 |
| 20260505175018 | 53 | 16 | 5.0 | 11.0 | 0.00 | 0.00 | 0.00 | 69 | 1010.8 |
| 20260505174602 | 53 | 35 | 3.0 | 12.0 | 0.00 | 0.00 | 0.00 | 69 | 1010.7 |
| 20260505174038 | 53 | 10 | 7.0 | 13.0 | 0.00 | 0.00 | 0.00 | 70 | 1010.8 |
| 20260505173057 | 53 | 13 | 5.0 | 12.0 | 0.00 | 0.00 | 0.00 | 68 | 1010.7 |
| 20260505173018 | 54 | 7 | 5.0 | 12.0 | 0.00 | 0.00 | 0.00 | 69 | 1010.8 |
| 20260505172018 | 54 | 14 | 6.0 | 13.0 | 0.00 | 0.00 | 0.00 | 69 | 1010.8 |
| 20260505171552 | 53 | 349 | 4.0 | 15.0 | 0.00 | 0.00 | 0.00 | 69 | 1010.8 |
| 20260505171018 | 54 | 3 | 6.0 | 15.0 | 0.00 | 0.00 | 0.00 | 69 | 1010.8 |
| 20260505170054 | 54 | 5 | 4.0 | 15.0 | 0.00 | 0.00 | 0.00 | 69 | 1010.8 |
| 20260505170016 | 54 | 12 | 5.0 | 11.0 | 0.00 | 0.00 | 0.00 | 69 | 1010.8 |
| 20260505165017 | 55 | 14 | 6.0 | 16.0 | 0.00 | 0.00 | 0.00 | 69 | 1010.8 |
| 20260505164551 | 54 | 355 | 6.0 | 15.0 | 0.00 | 0.00 | 0.00 | 68 | 1010.8 |
| 20260505164018 | 55 | 20 | 6.0 | 13.0 | 0.00 | 0.00 | 0.00 | 68 | 1010.9 |
| 20260505163051 | 54 | 341 | 5.0 | 13.0 | 0.00 | 0.00 | 0.00 | 68 | 1010.8 |
| 20260505163017 | 55 | 350 | 5.0 | 11.0 | 0.00 | 0.00 | 0.00 | 69 | 1010.9 |
| 20260505162018 | 55 | 16 | 7.0 | 18.0 | 0.00 | 0.00 | 0.00 | 69 | 1010.8 |
| 20260505161548 | 55 | 22 | 7.0 | 18.0 | 0.00 | 0.00 | 0.00 | 68 | 1010.8 |
| 20260505161017 | 55 | 9 | 5.0 | 14.0 | 0.00 | 0.00 | 0.00 | 67 | 1010.8 |
| 20260505153053 | 56 | 328 | 6.0 | 15.0 | 0.00 | 0.00 | 0.00 | 64 | 1010.9 |
| 20260505153018 | 56 | 15 | 6.0 | 15.0 | 0.00 | 0.00 | 0.00 | 65 | 1010.9 |
| 20260505152016 | 56 | 25 | 6.0 | 15.0 | 0.00 | 0.00 | 0.00 | 64 | 1010.9 |
| 20260505151549 | 56 | 17 | 7.0 | 15.0 | 0.00 | 0.00 | 0.00 | 63 | 1010.8 |
| 20260505151017 | 57 | 358 | 6.0 | 14.0 | 0.00 | 0.00 | 0.00 | 64 | 1011.0 |
| 20260505130106 | 57 | 5 | 2.0 | 14.0 | 0.00 | 0.00 | 0.00 | 64 | 1011.5 |
| 20260505125017 | 57 | 37 | 4.0 | 12.0 | 0.00 | 0.00 | 0.00 | 64 | 1011.5 |
| 20260505124553 | 56 | 11 | 5.0 | 14.0 | 0.00 | 0.00 | 0.00 | 64 | 1011.4 |
| 20260505124017 | 57 | 16 | 5.0 | 14.0 | 0.00 | 0.00 | 0.00 | 65 | 1011.5 |
| 20260505123055 | 56 | 36 | 5.0 | 13.0 | 0.00 | 0.00 | 0.00 | 66 | 1011.5 |
| 20260505123017 | 56 | 33 | 6.0 | 12.0 | 0.00 | 0.00 | 0.00 | 66 | 1011.5 |
| 20260505122017 | 56 | 23 | 5.0 | 13.0 | 0.00 | 0.00 | 0.00 | 66 | 1011.6 |
| 20260505121553 | 56 | 12 | 5.0 | 13.0 | 0.00 | 0.00 | 0.00 | 65 | 1011.6 |
| 20260505121016 | 56 | 18 | 5.0 | 12.0 | 0.00 | 0.00 | 0.00 | 66 | 1011.6 |
| 20260505120017 | 56 | 29 | 6.0 | 14.0 | 0.00 | 0.00 | 0.00 | 66 | 1011.6 |
| 20260505115016 | 56 | 18 | 5.0 | 14.0 | 0.00 | 0.00 | 0.00 | 66 | 1011.7 |
| 20260505114552 | 55 | 21 | 3.0 | 14.0 | 0.00 | 0.00 | 0.00 | 66 | 1011.6 |
| 20260505114017 | 56 | 16 | 5.0 | 14.0 | 0.00 | 0.00 | 0.00 | 66 | 1011.8 |
| 20260505113100 | 55 | 14 | 4.0 | 11.0 | 0.00 | 0.00 | 0.00 | 67 | 1011.8 |
| 20260505113017 | 55 | 7 | 5.0 | 10.0 | 0.00 | 0.00 | 0.00 | 67 | 1012.0 |
| 20260505112016 | 55 | 16 | 5.0 | 11.0 | 0.00 | 0.00 | 0.00 | 66 | 1012.1 |
| 20260505111553 | 55 | 30 | 4.0 | 13.0 | 0.00 | 0.00 | 0.00 | 66 | 1012.0 |
| 20260505111037 | 55 | 29 | 5.0 | 13.0 | 0.00 | 0.00 | 0.00 | 68 | 1012.0 |
| 20260505102017 | 55 | 43 | 5.0 | 11.0 | 0.00 | 0.00 | 0.00 | 67 | 1012.3 |
| 20260505101558 | 55 | 38 | 5.0 | 11.0 | 0.00 | 0.00 | 0.00 | 66 | 1012.3 |
| 20260505101017 | 55 | 17 | 4.0 | 14.0 | 0.00 | 0.00 | 0.00 | 67 | 1012.3 |
| 20260505100051 | 54 | 113 | 3.0 | 13.0 | 0.00 | 0.00 | 0.00 | 68 | 1012.2 |
| 20260505100016 | 54 | 19 | 4.0 | 13.0 | 0.00 | 0.00 | 0.00 | 68 | 1012.3 |
| 20260505095017 | 54 | 29 | 4.0 | 11.0 | 0.00 | 0.00 | 0.00 | 68 | 1012.2 |
| 20260505094625 | 54 | 31 | 4.0 | 12.0 | 0.00 | 0.00 | 0.00 | 68 | 1012.1 |
| 20260505094016 | 54 | 26 | 5.0 | 12.0 | 0.00 | 0.00 | 0.00 | 68 | 1012.0 |
| 20260505093057 | 54 | 21 | 6.0 | 15.0 | 0.00 | 0.00 | 0.00 | 68 | 1011.9 |
| 20260505092016 | 54 | 23 | 7.0 | 15.0 | 0.00 | 0.00 | 0.00 | 69 | 1011.9 |
| 20260505091559 | 53 | 22 | 6.0 | 14.0 | 0.00 | 0.00 | 0.00 | 68 | 1011.9 |
| 20260505091017 | 54 | 48 | 5.0 | 13.0 | 0.00 | 0.00 | 0.00 | 69 | 1012.0 |
| 20260505090017 | 54 | 30 | 4.0 | 10.0 | 0.00 | 0.00 | 0.00 | 70 | 1012.1 |
| 20260505085017 | 54 | 26 | 6.0 | 12.0 | 0.00 | 0.00 | 0.00 | 70 | 1012.2 |
| 20260505084555 | 53 | 27 | 3.0 | 14.0 | 0.00 | 0.00 | 0.00 | 70 | 1012.2 |
| 20260505084017 | 53 | 25 | 5.0 | 14.0 | 0.00 | 0.00 | 0.00 | 72 | 1012.2 |
| 20260505083100 | 53 | 24 | 5.0 | 13.0 | 0.00 | 0.00 | 0.00 | 70 | 1012.2 |
| 20260505083016 | 53 | 23 | 6.0 | 13.0 | 0.00 | 0.00 | 0.00 | 70 | 1012.3 |
| 20260505082017 | 53 | 21 | 4.0 | 11.0 | 0.00 | 0.00 | 0.00 | 70 | 1012.4 |
| 20260505081559 | 53 | 19 | 4.0 | 14.0 | 0.00 | 0.00 | 0.00 | 69 | 1012.4 |
| 20260505081017 | 53 | 22 | 6.0 | 14.0 | 0.00 | 0.00 | 0.00 | 70 | 1012.4 |
| 20260505080053 | 53 | 24 | 3.0 | 10.0 | 0.00 | 0.00 | 0.00 | 70 | 1012.4 |
| 20260505080016 | 53 | 24 | 3.0 | 10.0 | 0.00 | 0.00 | 0.00 | 71 | 1012.4 |
| 20260505075017 | 53 | 23 | 4.0 | 11.0 | 0.00 | 0.00 | 0.00 | 71 | 1012.4 |
| 20260505074552 | 53 | 30 | 3.0 | 10.0 | 0.00 | 0.00 | 0.00 | 71 | 1012.4 |
| 20260505074017 | 53 | 30 | 4.0 | 9.0 | 0.00 | 0.00 | 0.00 | 72 | 1012.6 |
| 20260505073053 | 52 | 25 | 2.0 | 10.0 | 0.00 | 0.00 | 0.00 | 73 | 1012.7 |
| 20260505073017 | 52 | 25 | 4.0 | 10.0 | 0.00 | 0.00 | 0.00 | 74 | 1012.7 |
| 20260505072037 | 52 | 26 | 4.0 | 10.0 | 0.00 | 0.00 | 0.00 | 74 | 1012.7 |
| 20260505071552 | 51 | 26 | 4.0 | 8.0 | 0.00 | 0.00 | 0.00 | 74 | 1012.7 |
| 20260505071036 | 52 | 24 | 3.0 | 9.0 | 0.00 | 0.00 | 0.00 | 75 | 1012.6 |
| 20260505070051 | 51 | 24 | 3.0 | 11.0 | 0.00 | 0.00 | 0.00 | 75 | 1012.5 |
| 20260505070017 | 51 | 24 | 4.0 | 11.0 | 0.00 | 0.00 | 0.00 | 76 | 1012.7 |